Location: Navajo
(48.7922°N, 105.0603°W)
Time: 09:22:38
(UTC+00:00)

ITUPSAT 1 - Pass Details

Date: 30 June 2022
Orbit: 701 x 711 km, 98.6° (Epoch: 13 August)

Event Time Altitude Azimuth Distance (km) Brightness Sun altitude
Rises 05:15:32 0° 0° (N) 3,111 ? -14.1°
Reaches altitude 10° 05:18:43 10° 338° (NNW) 2,189 ? -14.3°
Maximum altitude 05:21:18 15° 305° (NW) 1,882 ? -14.5°
Drops below altitude 10° 05:23:54 10° 272° (W) 2,185 ? -14.6°
Sets 05:27:05 0° 249° (WSW) 3,101 ? -14.9°
